When you browse on this site, cookies collect data to enhance your experience and personalize the content and advertising you see.
Visit our Privacy Policy to learn more. By continuing to use the site, you agree to this use of cookies and data.

Météo par heure à Kamarang

Ce jour, 10 Juillet, Vendredi

Heure Température Précipitation Vent Pression Humidité
00:00 +20°C° 0 mm 0 m/s 713 mmHg 99%
01:00 +20°C° 0 mm 0 m/s 713 mmHg 99%
02:00 +20°C° 0 mm 0 m/s 712 mmHg 99%
03:00 +20°C° 0 mm 0 m/s 712 mmHg 99%
04:00 +20°C° 0 mm 0 m/s 713 mmHg 99%
05:00 +20°C° 0 mm 0 m/s 713 mmHg 99%
06:00 +21°C° 0 mm 0 m/s 713 mmHg 97%
07:00 +22°C° 0 mm 0 m/s 713 mmHg 95%
08:00 +22°C° 0 mm 0 m/s 714 mmHg 94%
09:00 +25°C° 0.1 mm 0 m/s 714 mmHg 81%
10:00 +28°C° 0.1 mm 0 m/s 714 mmHg 67%
11:00 +30°C° 0.1 mm 0 m/s 715 mmHg 54%
12:00 +32°C° 0.6 mm 1 m/s 714 mmHg 58%
13:00 +32°C° 0.6 mm 1 m/s 713 mmHg 61%
14:00 +31°C° 0.6 mm 1 m/s 712 mmHg 65%
15:00 +30°C° 2 mm 1 m/s 711 mmHg 75%
16:00 +28°C° 2 mm 1 m/s 711 mmHg 85%
17:00 +26°C° 2 mm 1 m/s 711 mmHg 95%
18:00 +26°C° 2.8 mm 1 m/s 711 mmHg 96%
19:00 +25°C° 2.8 mm 1 m/s 712 mmHg 97%
20:00 +24°C° 2.8 mm 1 m/s 712 mmHg 97%
21:00 +21°C° 3.5 mm 0 m/s 712 mmHg 98%
22:00 +21°C° 3.5 mm 0 m/s 713 mmHg 98%
23:00 +21°C° 3.5 mm 0 m/s 713 mmHg 99%

Demain, 11 Juillet, Samedi

Heure Température Précipitation Vent Pression Humidité
00:00 +21°C° 2.8 mm 0 m/s 713 mmHg 99%
01:00 +21°C° 2.8 mm 0 m/s 712 mmHg 99%
02:00 +21°C° 2.8 mm 0 m/s 712 mmHg 99%
03:00 +21°C° 1.5 mm 0 m/s 712 mmHg 99%
04:00 +20°C° 1.5 mm 0 m/s 712 mmHg 99%
05:00 +20°C° 1.5 mm 0 m/s 712 mmHg 99%
06:00 +21°C° 0.6 mm 0 m/s 712 mmHg 98%
07:00 +22°C° 0.6 mm 0 m/s 713 mmHg 96%
08:00 +22°C° 0.6 mm 0 m/s 713 mmHg 95%
09:00 +24°C° 0.6 mm 0 m/s 713 mmHg 89%
10:00 +25°C° 0.6 mm 0 m/s 713 mmHg 82%
11:00 +29°C° 0.6 mm 1 m/s 713 mmHg 76%
12:00 +29°C° 1.1 mm 1 m/s 713 mmHg 78%
13:00 +29°C° 1.1 mm 1 m/s 712 mmHg 80%
14:00 +29°C° 1.1 mm 1 m/s 711 mmHg 82%
15:00 +28°C° 1.1 mm 1 m/s 711 mmHg 85%
16:00 +26°C° 1.1 mm 0 m/s 711 mmHg 89%
17:00 +25°C° 1.1 mm 0 m/s 710 mmHg 93%
18:00 +24°C° 1.2 mm 0 m/s 711 mmHg 94%
19:00 +23°C° 1.2 mm 0 m/s 711 mmHg 95%
20:00 +22°C° 1.2 mm 0 m/s 712 mmHg 97%
21:00 +21°C° 0.2 mm 0 m/s 712 mmHg 97%
22:00 +21°C° 0.2 mm 0 m/s 713 mmHg 98%
23:00 +21°C° 0.2 mm 0 m/s 713 mmHg 98%

Après-demain, 12 Juillet, Dimanche

Heure Température Précipitation Vent Pression Humidité
00:00 +20°C° 0.2 mm 0 m/s 713 mmHg 99%
01:00 +20°C° 0.2 mm 0 m/s 712 mmHg 99%
02:00 +20°C° 0.2 mm 0 m/s 712 mmHg 99%
03:00 +20°C° 0 mm 0 m/s 712 mmHg 99%
04:00 +20°C° 0 mm 0 m/s 712 mmHg 99%
05:00 +20°C° 0 mm 0 m/s 712 mmHg 99%
06:00 +20°C° 0.1 mm 0 m/s 712 mmHg 98%
07:00 +21°C° 0.1 mm 0 m/s 713 mmHg 97%
08:00 +22°C° 0.1 mm 0 m/s 714 mmHg 95%
09:00 +23°C° 1.2 mm 0 m/s 713 mmHg 94%
10:00 +24°C° 1.2 mm 0 m/s 713 mmHg 93%
11:00 +26°C° 1.2 mm 1 m/s 713 mmHg 92%
12:00 +27°C° 2 mm 1 m/s 713 mmHg 92%
13:00 +27°C° 2 mm 1 m/s 712 mmHg 92%
14:00 +27°C° 2 mm 1 m/s 711 mmHg 92%
15:00 +26°C° 1 mm 1 m/s 711 mmHg 92%
16:00 +26°C° 1 mm 1 m/s 711 mmHg 92%
17:00 +26°C° 1 mm 1 m/s 711 mmHg 92%
18:00 +25°C° 0.3 mm 1 m/s 711 mmHg 94%
19:00 +22°C° 0.3 mm 0 m/s 712 mmHg 96%
20:00 +21°C° 0.3 mm 0 m/s 712 mmHg 98%
21:00 +21°C° 0 mm 0 m/s 713 mmHg 98%
22:00 +20°C° 0 mm 0 m/s 713 mmHg 98%
23:00 +20°C° 0 mm 0 m/s 713 mmHg 98%

13 Juillet, Lundi

Heure Température Précipitation Vent Pression Humidité
00:00 +20°C° 0 mm 0 m/s 713 mmHg 99%
01:00 +20°C° 0 mm 0 m/s 712 mmHg 99%
02:00 +20°C° 0 mm 0 m/s 712 mmHg 99%
03:00 +20°C° 0 mm 0 m/s 712 mmHg 99%
04:00 +19°C° 0 mm 0 m/s 712 mmHg 99%
05:00 +19°C° 0 mm 0 m/s 712 mmHg 99%
06:00 +20°C° 0 mm 0 m/s 713 mmHg 97%
07:00 +21°C° 0 mm 0 m/s 713 mmHg 95%
08:00 +22°C° 0 mm 0 m/s 714 mmHg 94%
09:00 +23°C° 0.6 mm 0 m/s 714 mmHg 90%
10:00 +24°C° 0.6 mm 0 m/s 714 mmHg 86%
11:00 +27°C° 0.6 mm 1 m/s 714 mmHg 82%
12:00 +28°C° 0.6 mm 1 m/s 713 mmHg 78%
13:00 +29°C° 0.6 mm 1 m/s 713 mmHg 73%
14:00 +29°C° 0.6 mm 1 m/s 712 mmHg 68%
15:00 +29°C° 0.4 mm 1 m/s 712 mmHg 73%
16:00 +28°C° 0.4 mm 1 m/s 712 mmHg 77%
17:00 +28°C° 0.4 mm 1 m/s 711 mmHg 81%
18:00 +26°C° 1 mm 1 m/s 712 mmHg 87%
19:00 +24°C° 1 mm 1 m/s 712 mmHg 93%
20:00 +21°C° 1 mm 0 m/s 713 mmHg 98%
21:00 +21°C° 0.3 mm 0 m/s 713 mmHg 98%
22:00 +21°C° 0.3 mm 0 m/s 713 mmHg 99%
23:00 +20°C° 0.3 mm 0 m/s 714 mmHg 99%

14 Juillet, Mardi

Heure Température Précipitation Vent Pression Humidité
00:00 +20°C° 0.5 mm 0 m/s 713 mmHg 99%
01:00 +20°C° 0.5 mm 0 m/s 713 mmHg 99%
02:00 +20°C° 0.5 mm 0 m/s 712 mmHg 99%
03:00 +20°C° 0.3 mm 0 m/s 712 mmHg 99%
04:00 +20°C° 0.3 mm 0 m/s 712 mmHg 99%
05:00 +20°C° 0.3 mm 0 m/s 712 mmHg 99%
06:00 +21°C° 0.1 mm 0 m/s 713 mmHg 98%
07:00 +21°C° 0.1 mm 0 m/s 713 mmHg 96%
08:00 +22°C° 0.1 mm 0 m/s 714 mmHg 95%
09:00 +24°C° 0.1 mm 0 m/s 714 mmHg 85%
10:00 +26°C° 0.1 mm 0 m/s 714 mmHg 74%
11:00 +28°C° 0.1 mm 0 m/s 714 mmHg 64%
12:00 +30°C° 0.6 mm 1 m/s 713 mmHg 67%
13:00 +29°C° 0.6 mm 1 m/s 713 mmHg 70%
14:00 +29°C° 0.6 mm 1 m/s 712 mmHg 73%
15:00 +28°C° 0.9 mm 1 m/s 712 mmHg 79%
16:00 +27°C° 0.9 mm 1 m/s 712 mmHg 86%
17:00 +26°C° 0.9 mm 1 m/s 711 mmHg 92%
18:00 +25°C° 0.6 mm 1 m/s 712 mmHg 94%
19:00 +24°C° 0.6 mm 1 m/s 712 mmHg 96%
20:00 +21°C° 0.6 mm 0 m/s 713 mmHg 98%
21:00 +21°C° 0.2 mm 0 m/s 713 mmHg 98%
22:00 +20°C° 0.2 mm 0 m/s 713 mmHg 98%
23:00 +20°C° 0.2 mm 0 m/s 713 mmHg 98%

15 Juillet, Mercredi

Heure Température Précipitation Vent Pression Humidité
00:00 +20°C° 0.3 mm 0 m/s 713 mmHg 98%
01:00 +20°C° 0.3 mm 0 m/s 713 mmHg 98%
02:00 +20°C° 0.3 mm 0 m/s 712 mmHg 98%
03:00 +20°C° 0.6 mm 0 m/s 712 mmHg 99%
04:00 +19°C° 0.6 mm 0 m/s 712 mmHg 99%
05:00 +19°C° 0.6 mm 0 m/s 712 mmHg 99%
06:00 +20°C° 0.1 mm 0 m/s 713 mmHg 97%
07:00 +21°C° 0.1 mm 0 m/s 713 mmHg 96%
08:00 +22°C° 0.1 mm 0 m/s 714 mmHg 94%
09:00 +24°C° 0 mm 0 m/s 714 mmHg 82%
10:00 +26°C° 0 mm 0 m/s 714 mmHg 70%
11:00 +31°C° 0 mm 1 m/s 714 mmHg 58%
12:00 +30°C° 0.8 mm 1 m/s 713 mmHg 66%
13:00 +29°C° 0.8 mm 1 m/s 712 mmHg 73%
14:00 +28°C° 0.8 mm 1 m/s 711 mmHg 81%
15:00 +28°C° 1.1 mm 1 m/s 711 mmHg 85%
16:00 +27°C° 1.1 mm 1 m/s 711 mmHg 89%
17:00 +25°C° 1.1 mm 0 m/s 711 mmHg 92%
18:00 +24°C° 1.6 mm 0 m/s 712 mmHg 94%
19:00 +22°C° 1.6 mm 0 m/s 712 mmHg 96%
20:00 +21°C° 1.6 mm 0 m/s 712 mmHg 98%
21:00 +20°C° 0.7 mm 0 m/s 713 mmHg 98%
22:00 +20°C° 0.7 mm 0 m/s 713 mmHg 98%
23:00 +20°C° 0.7 mm 0 m/s 713 mmHg 98%
Voir plus